Skip Navigation Linkswww.weather.gov 
NOAA logo - Click to go to the NOAA homepage National Weather Service Forecast Office   NWS logo - Click to go to the NWS homepage    
Los Angeles, California
navigation bar decoration      
spacer
Printer Friendly  |   Go Back  |  Version: Current   1   2   3   4   5   6   7   8   9   10   |  Font:  A A A  |  

HOURLY WEATHER ROUNDUP
 
 ASUS46 KSTO 060309
RWRCA

NORTHERN AND CENTRAL CA REGIONAL WEATHER ROUNDUP
NATIONAL WEATHER SERVICE SACRAMENTO CA
700 PM PST THU MAR 05 2015

NOTE: FAIR INDICATES FEW OR NO CLOUDS BELOW 12,000 FEET WITH NO
SIGNIFICANT WEATHER AND/OR OBSTRUCTIONS TO VISIBILITY.

CAZ001-003-060400-
NORTHWEST AREA

CITY SKY/WX TMP DP RH WIND PRES REMARKS
CRESCENT CITY PTCLDY 49 42 77 CALM 30.34R
ARCATA NOT AVBL
SHELTER COVE NOT AVBL
UKIAH CLEAR 58 39 49 NW3 30.29R
$$

CAZ006-505>513-060400-
BAY AREA

CITY SKY/WX TMP DP RH WIND PRES REMARKS
SANTA ROSA CLEAR 61 39 44 SW3 30.27R
SAN RAFAEL N/A 66 MM MM MISG
NAPA CLEAR 54 41 61 E3 30.28R
CONCORD CLEAR 61 38 42 CALM 30.28R
OAKLAND CITY N/A 70 MM MM MISG
OAKLAND CLEAR 61 37 41 N6 30.27R
SAN FRAN CITY N/A 68 MM 26 MISG
SAN FRAN ARPT CLEAR 64 41 42 NW7 30.27R
LIVERMORE CLEAR 58 41 53 NE8 30.28R
HAYWARD CLEAR 66 41 40 NE7 30.27R
REDWOOD CITY N/A 69 MM 31 MISG
MOFFETT ARPT CLEAR 58 45 62 N5 30.27R
SAN JOSE ARPT CLEAR 61 43 51 W7 30.26R
$$
CAZ034-037-514>518-060400-
CENTRAL COAST

CITY SKY/WX TMP DP RH WIND PRES REMARKS
WATSONVILLE CLEAR 63 43 48 E3 30.25R
SALINAS CLEAR 63 46 54 W5 30.25R
MONTEREY CLEAR 58 45 62 CALM 30.26R
PT PIEDRAS BLS NOT AVBL
SAN LUIS OBISP CLEAR 59 38 45 NW3 30.22R
SANTA MARIA CLEAR 58 49 72 CALM 30.23R
$$
CAZ015-016-060400-
NORTHERN SACRAMENTO VALLEY

CITY SKY/WX TMP DP RH WIND PRES REMARKS
REDDING CLEAR 59 36 42 N3 30.28R
RED BLUFF PTCLDY 61 35 37 SW3 30.29R
OROVILLE CLEAR 59 41 51 CALM 30.29S
$$
CAZ016>018-060400-
SOUTHERN SACRAMENTO VALLEY

CITY SKY/WX TMP DP RH WIND PRES REMARKS
AUBURN CLEAR 55 37 50 CALM 30.30S
BEALE AFB CLEAR 57 43 58 N1 30.26S
LINCOLN FAIR 59 39 47 CALM 30.27S
MARYSVILLE CLEAR 60 38 43 N3 30.28R
SAC INTL ARPT CLEAR 58 40 51 CALM 30.27S
MATHER AIRPORT CLEAR 59 37 44 CALM 30.27
DOWNTOWN SAC N/A 70 MM MM MISG
SAC EXEC ARPT CLEAR 58 37 45 CALM 30.27S
VACAVILLE CLEAR 55 39 54 CALM 30.29S
TRAVIS AFB CLEAR 52 45 77 NE1 30.26S
$$
CAZ019>021-060400-
SAN JOAQUIN VALLEY

CITY SKY/WX TMP DP RH WIND PRES REMARKS
STOCKTON CLEAR 58 36 43 NW7 30.26R
MODESTO CLEAR 62 37 39 NW5 30.26R
MERCED CLEAR 59 38 45 N5 30.25R
LEMOORE CLEAR 59 31 34 N7 30.26R
FRESNO CLEAR 63 39 41 N5 30.26R
HANFORD CLEAR 60 41 49 MISG 30.26R
PORTERVILLE CLEAR 57 43 58 CALM 30.26S
BAKERSFIELD CLEAR 59 41 51 N7 30.25R
$$
CAZ011-012-071-060400-
NORTHERN MOUNTAINS

CITY SKY/WX TMP DP RH WIND PRES REMARKS
YREKA CLEAR 45 31 58 SE6 30.31R
MOUNT SHASTA CLEAR 47 26 44 CALM 30.33R
ALTURAS CLEAR 46 16 30 CALM 30.33R
$$
CAZ011-012-071-060400-
SIERRA NEVADA MTNS

CITY SKY/WX TMP DP RH WIND PRES REMARKS
BLUE CANYON CLEAR 48 26 42 NE3 30.38R
TRUCKEE CLEAR 34 23 64 S5 30.39R WCI 30
TAHOE VLY ARPT CLEAR 38 22 52 SW3 30.38R
MAMMOTH LAKES FAIR 34 7 32 W9 30.40R WCI 26
$$



Webmaster
US Dept of Commerce
National Oceanic and Atmospheric Administration
National Weather Service
Los Angeles/Oxnard Weather Forecast Office
520 North Elevar Street
Oxnard, CA 93030

Tel: (805) 988-6610

Disclaimer
Information Quality
Credits
Glossary
Organization
Privacy Policy
Freedom of Information Act
About Us
Career Opportunities